Lid_Strength_Index
-1 -1 -0 2 9 8 10 8 6 7 7 5 4 6 7 6 8 12 1 0 -0 1 -1 -1 -1 -1 -1 -1 -1 -1 -1 -1 -1 -1 -1 -1 -1 -1 -1 -1 -1 -1 -1 -1 -1 -1 -1 -1 -1
1 0 1 4 10 12 10 7 8 6 5 4 5 5 6 8 4 3 2 -0 -0 -0 -1 -1 -1 -1 -1 -1 -1 -1 -1 -1 -1 -1 -1 -1 -1 -1 -1 -1 -1 -1 -1 -1 -1 -1 -1 -1 -1
0 1 4 6 9 13 10 7 6 5 4 5 5 4 5 6 3 2 0 -0 -0 -0 -1 -1 -1 -1 -1 -1 -1 -1 -1 -1 -1 -1 -1 -1 -1 -1 -1 -1 -1 -1 -1 -1 -1 -1 -1 -1 -1
1 2 3 7 11 8 7 6 5 5 4 4 5 7 4 2 2 1 -0 -0 0 -0 -1 -1 -2 -1 -1 -1 -1 -1 -1 -1 -1 -1 -1 -1 -1 -1 -1 -1 -1 -1 -1 -1 -1 -1 -1 -1 -1
2 3 7 9 8 6 5 4 4 5 5 5 5 7 6 2 1 0 0 -0 0 -0 -1 -1 -2 -2 -1 -1 -1 -1 -1 -1 -1 -1 -1 -1 -1 -1 -1 -1 -1 -1 -1 -1 -1 -1 -1 -1 -1
5 4 9 11 8 6 5 4 4 5 5 5 5 6 5 1 1 1 0 -0 -0 -0 -1 -1 -1 -2 -2 -2 -2 -1 -1 -1 -1 -2 -2 -2 -2 -2 -2 -2 -2 -2 -2 -2 -2 -2 -2 -1 -1
5 6 9 8 9 8 5 4 5 5 5 5 4 7 4 3 1 0 0 -0 -0 -0 -0 -1 -1 -1 -2 -2 -2 -2 -2 -2 -2 -2 -2 -2 -2 -2 -2 -2 -2 -2 -2 -2 -2 -2 -2 -1 -1
4 5 8 8 9 9 5 4 4 4 5 3 3 7 6 3 1 0 0 0 -0 -0 -0 -0 -1 -1 -1 -1 -2 -2 -2 -2 -2 -2 -2 -2 -1 -1 -2 -1 -1 -2 -2 -2 -2 -1 -1 -1 -1
3 7 9 8 7 7 4 5 4 3 4 3 3 4 3 1 1 1 1 1 1 0 -0 -0 -0 -0 -0 -1 -1 -2 -2 -2 -2 -2 -2 -2 -1 -1 -1 -1 -2 -2 -2 -2 -2 -2 -1 -1 -1
5 7 7 5 5 6 4 5 4 4 4 4 4 3 2 2 2 2 2 2 2 1 1 -0 -0 -1 -1 -1 -1 -1 -1 -1 -1 -2 -3 -1 -1 -2 -2 -2 -2 -2 -3 -2 -2 -2 -2 -1 -1
4 7 5 5 4 4 4 5 4 5 6 4 5 4 3 2 2 2 2 2 2 1 0 -0 -1 -2 -1 -1 -2 -2 -1 -2 -2 -3 -3 -3 -2 -2 -1 -1 -1 -1 -1 -0 -2 -1 -1 -0 -0
6 5 4 4 4 4 5 4 4 5 5 3 3 3 3 3 3 2 2 2 2 1 0 0 -0 -1 -2 -1 -1 -2 -1 -2 -2 -2 -3 -2 -1 -1 -1 -1 -1 -1 -1 -1 -1 -1 -1 -0 -1
5 5 4 4 4 4 4 5 5 5 4 2 2 3 3 3 3 2 2 1 1 1 1 0 -1 -1 -1 -1 -1 -2 -1 -2 -2 -2 -3 -2 -1 -0 -1 -1 -1 -1 -2 -1 -0 -0 -0 -0 -0
4 4 5 4 4 4 5 5 4 4 3 3 3 3 3 3 3 2 2 2 1 1 0 -0 -0 -1 -1 -1 -2 -1 -2 -2 -2 -2 -3 -3 -3 -1 -1 -0 -1 -1 -1 -1 -1 -0 -0 0 -0
4 6 5 5 4 5 4 6 6 3 3 3 3 3 3 3 2 2 2 2 1 1 0 -0 -0 -1 -1 -1 -1 -2 -2 -2 -1 -2 -3 -3 -3 -2 -2 -1 -0 -1 -2 -1 -1 -1 -1 0 -0
6 6 8 5 5 4 5 8 5 4 4 4 4 3 3 4 3 2 1 1 1 1 0 -1 -0 -1 -1 -1 -2 -1 -2 -2 -2 -2 -3 -2 -2 -3 -1 -0 -0 -1 -2 -1 -0 0 0 0 0
6 9 8 7 5 5 5 7 5 3 4 4 4 4 4 4 4 2 2 1 1 0 0 0 -1 -1 -1 -1 -1 -2 -2 -1 -2 -2 -2 -3 -2 -2 -2 -1 -1 -1 -1 -0 -0 0 0 1 1
9 9 8 8 6 6 6 6 5 4 4 4 4 3 4 4 4 3 2 1 1 0 -0 -1 -2 -2 -1 -1 -1 -0 -1 -1 -2 -1 -1 -2 -1 -2 -1 -1 -0 -1 -0 0 0 0 0 1 1
7 8 8 7 5 6 6 6 5 4 4 4 4 4 4 4 4 3 2 1 1 0 0 -1 -1 -2 -1 -0 1 1 1 0 -0 -1 -2 -1 -1 -1 -2 -1 -0 -1 0 0 0 1 1 1 0
6 7 8 6 6 6 6 7 5 5 4 4 4 4 4 4 4 3 2 1 1 1 1 0 0 -1 -1 0 0 0 0 0 -0 -1 -1 -2 -2 -2 -1 -1 -0 -0 0 0 0 1 1 1 1
7 8 8 8 6 6 7 8 7 5 5 4 4 3 3 4 4 3 2 2 1 1 1 1 1 0 0 -0 -0 0 0 0 0 0 0 -0 -1 -1 -2 -1 -0 -0 0 1 0 1 1 2 1
8 6 7 7 8 10 7 11 8 6 6 5 5 4 4 3 4 3 3 1 2 2 1 1 0 -0 -0 -1 -0 0 2 2 1 1 0 -0 -1 -1 -1 -1 -0 -0 -0 0 0 0 1 1 3
7 6 6 7 8 8 8 10 9 6 7 6 5 4 4 3 3 4 4 2 1 1 0 -0 -0 -1 -1 -2 -2 0 1 1 1 0 0 0 -0 -1 -1 -1 -1 -0 0 -0 0 1 1 1 2
5 6 7 7 8 11 9 10 10 8 7 6 5 4 4 3 3 3 2 2 1 1 0 -0 -0 0 -1 -1 -1 0 1 1 1 1 1 1 0 -0 -1 -1 -1 -0 -0 1 1 1 2 2 1
6 8 11 12 12 13 8 10 9 6 6 5 5 4 4 3 3 3 3 3 2 1 1 1 1 1 -0 -0 -0 -0 0 0 1 1 1 1 1 2 1 -0 1 1 1 1 1 2 2 2 3
7 8 11 15 13 12 8 11 9 6 5 4 4 4 3 3 3 3 2 2 2 1 1 1 1 1 0 0 0 0 -0 0 1 0 1 1 1 2 0 1 1 1 1 1 2 2 2 2 1
7 9 7 10 10 12 10 9 7 5 5 5 5 4 4 3 3 3 2 2 1 1 1 0 0 0 0 0 0 0 0 0 1 0 1 2 1 1 1 0 1 2 3 3 3 4 3 1 1
6 6 10 10 15 14 11 10 11 8 7 5 5 5 4 3 3 3 2 1 0 1 -0 -0 1 1 0 0 0 0 0 0 0 0 0 2 2 1 1 2 2 3 4 4 4 5 2 1 1
7 8 8 8 10 14 14 11 7 7 6 6 5 4 4 3 3 3 2 1 1 1 2 1 1 1 1 0 0 0 0 0 0 1 1 2 2 2 2 3 4 4 4 4 5 5 3 2 1
6 7 7 11 12 10 11 11 5 5 5 5 5 4 3 3 3 2 2 2 2 1 1 1 1 1 1 0 0 1 0 1 1 2 3 3 3 3 4 5 5 4 4 4 5 4 3 3 2